Location: Afragola
(40.9167°N, 14.3000°E)
Time: 23:55:14
(UTC+00:00)

Daily predictions for brighter satellites

Satellite Brightness Start Highest point End
(mag) Time Altitude Azimuth Time Altitude Azimuth Time Altitude Azimuth
COSMOS 2455 3.1 15:55:51 10° S 16:01:40 54° ESE 16:07:32 10° NE
Cosmos 2034 Rocket 4.1 15:55:40 10° S 16:01:50 89° W 16:08:01 10° N
Meteor 1-20 Rocket 4.3 15:57:25 10° N 16:03:13 63° ENE 16:09:01 10° SSE
Cosmos 990 Rocket 4.0 16:01:07 10° NNW 16:06:20 90° ENE 16:11:29 10° SSE
ATLAS CENTAUR R/B 3.6 15:54:19 10° SW 16:06:41 74° NW 16:11:30 10° NE
Lacrosse 5 rocket 3.3 16:05:14 10° N 16:06:45 12° NNE 16:08:17 10° NE
COSMO-SKYMED 1 4.1 16:06:14 10° NE 16:09:02 17° E 16:11:49 10° SE
USA 234 3.6 16:04:14 10° ESE 16:10:26 47° NNE 16:16:36 10° NW
Cosmos 1656 4.4 16:07:16 10° NNW 16:12:44 59° WSW 16:18:14 10° S
NOAA 6 4.1 16:09:40 10° SSE 16:14:43 59° ENE 16:19:45 10° N
Cosmos 1633 Rocket 4.4 16:11:58 10° NNE 16:15:09 19° ENE 16:18:19 10° ESE
SL-24 R/B - RUBIN 2 4.2 16:12:07 10° NNW 16:16:13 33° NE 16:20:08 10° ESE
ISS -2.5 16:14:24 10° NW 16:17:20 26° NNE 16:20:02 11° E
NOSS 3-1 (A) 4.3 16:09:34 10° NW 16:17:20 90° E 16:26:17 10° SSE
Cosmos 1634 Rocket 4.1 16:15:24 10° S 16:21:36 62° E 16:27:51 10° NNE
Cosmos 1151 Rocket 3.8 16:18:26 10° SSE 16:22:13 30° E 16:26:02 10° NNE
Cosmos 1666 3.8 16:21:18 10° NNE 16:24:15 22° ENE 16:27:11 10° SE
PSLV R/B 4.1 16:21:23 10° SE 16:24:49 38° ENE 16:28:18 10° N
CZ-4B R/B 3.7 16:23:29 10° S 16:27:30 55° W 16:31:19 10° NNW
Meteor 2-14 Rocket 4.4 16:21:29 10° N 16:27:32 61° E 16:33:30 10° SSE
Cosmos 2026 Rocket 3.9 16:22:34 10° N 16:28:41 67° E 16:34:41 10° SSE
Cosmos 1933 3.6 16:24:50 10° SSW 16:28:52 72° W 16:32:55 10° N
Cosmos 1743 Rocket 4.2 16:26:23 10° NNW 16:30:39 60° W 16:34:54 10° S
Cosmos 2322 Rocket 3.9 16:28:58 10° NNE 16:31:21 12° NE 16:32:02 12° NE
Cosmos 2195 Rocket 4.5 16:26:16 10° N 16:32:29 85° E 16:38:42 10° S
Cosmos 1697 Rocket 2.8 16:27:08 10° NNW 16:32:46 83° WSW 16:38:23 10° SSE
Cosmos 858 Rocket 4.4 16:28:48 10° NNW 16:34:07 77° ENE 16:39:22 10° SSE
Okean O Rocket 2.6 16:30:51 10° ESE 16:34:26 24° ENE 16:38:01 10° NNE
Cosmos 540 Rocket 3.8 16:31:33 10° SSW 16:36:37 66° WNW 16:41:43 10° NNE
Cosmos 1980 Rocket 2.2 16:32:00 10° NNW 16:37:35 56° ENE 16:43:05 10° SE
X-37B 2.7 16:36:38 10° SSE 16:37:51 12° SE 16:38:46 11° ESE
MOS 1-B 4.4 16:34:43 10° SSE 16:40:20 56° ENE 16:45:59 10° N
Cosmos 2369 3.7 16:36:12 10° NNW 16:41:58 77° ENE 16:47:40 10° SSE
Cosmos 1666 Rocket 3.8 16:37:48 10° N 16:42:04 44° ENE 16:46:15 10° SSE
Landsat 5 4.5 16:40:23 17° NE 16:42:19 24° E 16:45:33 10° SSE
Cosmos 1328 Rocket 4.1 16:38:37 10° SSE 16:42:40 36° E 16:46:45 10° NNE
Cosmos 1812 2.7 16:40:24 10° S 16:44:10 60° E 16:47:59 10° NNE
CORIOLIS 4.3 16:42:30 10° S 16:47:53 79° WSW 16:53:20 10° NNW
Meteor 1-5 Rocket 4.5 16:42:11 10° N 16:48:00 51° ENE 16:53:42 10° SSE
Cosmos 1570 Rocket 4.0 16:44:42 10° S 16:49:52 64° ESE 16:55:00 10° NNE
SL-16 R/B 3.3 16:45:57 10° N 16:50:15 21° NE 16:51:23 20° ENE
Meteor 1-14 Rocket 4.3 16:44:29 10° N 16:50:18 60° ENE 16:56:09 10° SSE
Cosmos 2082 Rocket 2.3 16:44:52 10° SSW 16:50:33 80° WNW 16:56:15 10° NNE
Cosmos 1814 Rocket 3.9 16:46:37 10° SSW 16:51:50 77° ESE 16:57:02 10° NNE
Meteor 2-21 Rocket 4.3 16:45:53 10° N 16:51:59 71° E 16:58:01 10° SSE
SKYMED 2 3.6 16:53:05 10° NNE 16:57:22 55° E 17:01:37 10° S
CZ-4B DEB 4.5 16:55:14 10° S 17:00:44 72° WSW 17:06:15 10° NNW
MOS 1-B Rocket 4.1 16:57:08 10° NNE 17:03:11 87° ESE 17:10:10 10° SSW
ARGOS 3.2 16:58:53 10° SSE 17:04:08 53° ENE 17:09:23 10° N
Cosmos 2278 3.6 16:59:57 10° NNW 17:05:38 68° ENE 17:11:17 10° SSE
Sich 1 3.9 17:01:51 10° NNW 17:06:01 50° W 17:10:11 10° SSW
CZ-2C R/B 2.9 17:02:51 10° SW 17:06:16 23° SSE 17:07:51 19° SE
Cosmos 1818 4.0 17:01:30 10° NNW 17:06:38 39° NE 17:08:59 26° E
deb Chang Zheng 4 3.4 17:11:16 10° SSE 17:15:33 77° ENE 17:19:52 10° N
Meteor 1-27 Rocket 4.1 17:13:43 10° SSE 17:18:41 36° E 17:19:12 35° E
USA 267 4.3 17:16:34 16° NNE 17:21:06 36° NNW 17:26:55 10° W
CZ-4C R/B 4.0 17:22:46 32° SSE 17:22:46 32° SSE 17:24:49 10° S
Cosmos 2208 Rocket 4.1 17:19:48 10° SSW 17:25:11 79° WNW 17:29:27 17° NNE
Cosmos 1515 Rocket 3.5 17:21:39 10° S 17:26:01 59° E 17:26:52 49° NE
SL-08 RB Rocket 3.7 17:22:01 10° SSE 17:26:34 59° ENE 17:31:07 10° N
Cosmos 1867 4.2 17:23:07 10° S 17:27:59 35° ESE 17:27:59 35° ESE
CZ-2C R/B 2.7 17:23:01 10° N 17:28:12 73° WNW 17:33:20 10° SSW
Meteor 2-6 Rocket 4.3 17:24:25 10° SSW 17:30:12 78° W 17:35:51 10° N
H-2A R/B 2.8 17:25:10 10° S 17:30:12 52° W 17:35:09 10° NNW
CZ-4B R/B 3.4 17:26:08 10° S 17:31:32 72° WSW 17:36:54 10° NNW
Cosmos 2150 Rocket 4.0 17:27:35 10° N 17:32:40 52° ENE 17:33:12 50° E
CZ-4C R/B 3.0 17:26:10 10° NW 17:33:41 89° NE 17:42:19 10° SSE
USA 32 3.9 17:34:32 10° S 17:39:40 60° E 17:40:19 56° ENE
Cosmos 921 Rocket 3.2 17:40:19 10° SSW 17:44:27 64° WNW 17:45:22 49° NNW
COSMO-SKYMED 1 3.7 17:41:39 12° N 17:45:22 42° WNW 17:49:28 10° SW
Lacrosse 5 rocket 2.8 17:42:48 10° NW 17:44:49 26° NNW 17:44:49 26° NNW
Cosmos 1125 Rocket 3.4 17:42:38 10° NNW 17:47:31 64° NE 17:47:31 64° NE
Meteor 2-15 Rocket 4.4 17:44:21 10° S 17:50:29 88° W 17:55:52 14° N
USA 234 3.8 17:46:55 10° SSE 17:53:19 56° SW 17:59:45 10° NW
ISS -1.9 17:51:00 10° WNW 17:53:03 31° W 17:53:03 31° W
Cosmos 2360 Rocket 4.0 17:50:43 10° N 17:52:12 17° N 17:52:12 17° N
Cosmos 2266 Rocket 4.0 17:49:44 10° N 17:56:09 84° W 18:02:34 10° S
Cosmos 44 Rocket 3.3 17:51:36 10° NNW 17:56:03 74° NW 17:56:03 74° NW
Meteor 1-11 Rocket 3.6 17:54:18 10° N 17:59:58 89° W 18:05:43 10° S
NOSS 3-3 (A) 4.3 17:54:46 10° SSW 17:58:50 43° SSE 17:58:50 43° SSE
NOSS 3-3 (C) 4.3 17:54:52 10° S 17:58:54 42° SSE 17:58:54 42° SSE
Okean O Rocket 3.4 18:06:40 10° SSW 18:10:37 31° W 18:14:36 10° NNW
Cosmos 2322 Rocket 3.3 18:10:43 10° NNW 18:13:54 34° N 18:13:54 34° N
SL-16 R/B 3.0 18:29:12 10° NNW 18:33:21 46° NW 18:33:21 46° NW
CZ-2C R/B 4.3 18:41:32 10° WSW 18:42:01 13° WSW 18:42:01 13° WSW
